Content
SEND FEEDBACK

Daily
Averages
Monthly
Summary
United States of America

AUSTIN - LAKE TRAVIS, TEXAS


Home > North America > United States > Texas
Elevation: 550 feet     Latitude: 30 24N     Longitude: 097 55W

WEATHER
 
SELECT A DAY
Number of Records: 151,573;   Date Range: 4/11/08 - 7/24/14
 
SHARE

PRINT THIS DATA

[ ← Previous Day ]
WEATHER ALMANAC - JANUARY 23, 2013
[ Next Day → ]
[ °C ]   °F
Weather ElementAverageHighLow
Temperature61 °F73.4 °F (2:55 pm)48.2 °F (7:15 am)
Dewpoint51.5 °F53.6 °F (10:15 am)46.4 °F (6:55 am)
Humidity73.1 %100 % (8:55 am)50 % (2:55 pm)
Barometer30.26 in30.34 in (10:15 am)30.21 in (5:15 pm)
Wind Speed6.8 mph15 mph (1:15 pm)
Wind Gust20.7 mph (1:35 pm)
Weather ElementAverage
Visibility8.3 mi
Wind DirectionSSE (163.9 °)

Weather ElementTotal
Precipitation---
Heating Degree Days4.2 (Base 65)
Growing Degree Days10.8 (Base 50)
Averaged from 66 records on January 23, 2013
WEATHER CONDITIONS BREAKOUT
WIND DIRECTION BREAKOUT
WEATHER BY HOUR - JANUARY 23, 2013
[ °C ]   °F
Local TimeTemperatureDewpointHumidityBarometerVisibilityWind DirectionWind SpeedGust SpeedPrecipitationEventsConditions
12:35 AM55.4 °F48.2 °F77 %30.27 in10.0 miSouth (170°)4.6 mphClear
1:15 AM53.6 °F48.2 °F82 %30.27 in10.0 miSouth (170°)6.9 mphClear
1:55 AM53.6 °F48.2 °F82 %30.27 in10.0 miSouth (170°)4.6 mphClear
2:15 AM53.6 °F48.2 °F82 %30.27 in10.0 miSouth (190°)6.9 mphClear
2:35 AM53.6 °F48.2 °F82 %30.27 in10.0 miSouth (190°)3.5 mphClear
2:55 AM53.6 °F48.2 °F82 %30.27 in10.0 miSouth (190°)3.5 mphClear
3:15 AM51.8 °F48.2 °F88 %30.27 in10.0 miSouth (180°)3.5 mphClear
3:35 AM51.8 °F48.2 °F88 %30.27 in10.0 miSouth (180°)3.5 mphClear
3:55 AM51.8 °F48.2 °F88 %30.27 in10.0 miSouth (180°)3.5 mphClear
4:15 AM51.8 °F50.0 °F94 %30.26 in10.0 miSouth (180°)4.6 mphClear
4:35 AM51.8 °F48.2 °F88 %30.26 in10.0 miSouth (170°)4.6 mphClear
4:55 AM51.8 °F48.2 °F88 %30.26 in10.0 miSouth (180°)5.8 mphClear
5:15 AM51.8 °F50.0 °F94 %30.26 in10.0 miSouth (170°)4.6 mphClear
5:35 AM50.0 °F48.2 °F94 %30.26 in7.0 miSSE (160°)4.6 mphClear
5:55 AM50.0 °F48.2 °F94 %30.26 in7.0 miSSE (160°)5.8 mphClear
6:15 AM50.0 °F48.2 °F94 %30.27 in5.0 miSSE (160°)4.6 mphClear
6:55 AM50.0 °F46.4 °F87 %30.28 in0.2 miCalmFogFog
7:15 AM48.2 °F46.4 °F93 %30.28 in0.2 miCalmFogFog
7:35 AM48.2 °F46.4 °F93 %30.29 in0.2 miESE (120°)4.6 mphOvercast
7:55 AM48.2 °F46.4 °F93 %30.30 in0.2 miCalmRainRain
8:15 AM50.0 °F46.4 °F87 %30.30 in0.2 miESE (110°)3.5 mphDrizzle
8:35 AM50.0 °F48.2 °F94 %30.31 in0.2 miESE (110°)3.5 mphLight Drizzle
8:55 AM50.0 °F50.0 °F100 %30.31 in0.2 miESE (120°)3.5 mphDrizzle
9:15 AM51.8 °F50.0 °F94 %30.32 in0.2 miCalmLight Drizzle
9:35 AM51.8 °F51.8 °F100 %30.32 in0.5 miCalmFogFog
9:55 AM53.6 °F51.8 °F94 %30.33 in2.0 miSSE (150°)3.5 mphOvercast
10:15 AM55.4 °F53.6 °F94 %30.34 in7.0 miSE (130°)4.6 mphOvercast
10:35 AM57.2 °F53.6 °F88 %30.34 in10.0 miSSE (150°)4.6 mphMostly Cloudy
10:55 AM59.0 °F53.6 °F82 %30.33 in10.0 miSSE (150°)5.8 mphScattered Clouds
11:15 AM60.8 °F53.6 °F77 %30.33 in10.0 miSouth (170°)4.6 mphClear
11:35 AM62.6 °F53.6 °F72 %30.32 in10.0 miSSE (160°)5.8 mphClear
11:55 AM64.4 °F53.6 °F68 %30.32 in10.0 miSouth (170°)3.5 mphClear
12:15 PM68.0 °F53.6 °F60 %30.30 in10.0 miSSW (200°)8.1 mph16.1 mphClear
12:35 PM68.0 °F53.6 °F60 %30.28 in10.0 miSSW (200°)8.1 mph17.3 mphClear
12:55 PM69.8 °F51.8 °F53 %30.27 in10.0 miSouth (190°)12.7 mph17.3 mphClear
1:15 PM69.8 °F53.6 °F56 %30.27 in10.0 miSouth (190°)15.0 mph18.4 mphScattered Clouds
1:35 PM69.8 °F53.6 °F56 %30.26 in10.0 miSSW (210°)11.5 mph20.7 mphMostly Cloudy
1:55 PM71.6 °F53.6 °F53 %30.25 in10.0 miSSW (210°)10.4 mph16.1 mphScattered Clouds
2:15 PM71.6 °F53.6 °F53 %30.24 in10.0 miSSW (200°)9.2 mph16.1 mphScattered Clouds
2:35 PM71.6 °F53.6 °F53 %30.23 in10.0 miSSW (200°)9.2 mph18.4 mphScattered Clouds
2:55 PM73.4 °F53.6 °F50 %30.22 in10.0 miSouth (180°)12.7 mph17.3 mphClear
3:15 PM71.6 °F53.6 °F53 %30.22 in10.0 miSouth (190°)9.2 mph19.6 mphClear
3:35 PM73.4 °F53.6 °F50 %30.22 in10.0 miSouth (190°)9.2 mphClear
3:55 PM71.6 °F53.6 °F53 %30.22 in10.0 miSSW (210°)9.2 mphClear
4:15 PM71.6 °F53.6 °F53 %30.22 in10.0 miSouth (180°)11.5 mph16.1 mphClear
4:35 PM71.6 °F53.6 °F53 %30.22 in10.0 miSouth (180°)12.7 mphClear
4:55 PM71.6 °F53.6 °F53 %30.22 in10.0 miSouth (180°)11.5 mphClear
5:15 PM71.6 °F53.6 °F53 %30.21 in10.0 miSouth (190°)12.7 mphClear
5:35 PM69.8 °F53.6 °F56 %30.21 in10.0 miSouth (180°)11.5 mph18.4 mphClear
5:55 PM69.8 °F53.6 °F56 %30.21 in10.0 miSouth (190°)9.2 mphClear
6:15 PM68.0 °F53.6 °F60 %30.21 in10.0 miSouth (190°)9.2 mphClear
6:35 PM68.0 °F53.6 °F60 %30.21 in10.0 miSouth (190°)8.1 mphClear
6:55 PM68.0 °F53.6 °F60 %30.21 in10.0 miSouth (190°)9.2 mphClear
7:15 PM68.0 °F53.6 °F60 %30.21 in10.0 miSouth (190°)11.5 mph17.3 mphClear
7:35 PM68.0 °F53.6 °F60 %30.21 in10.0 miSouth (190°)11.5 mph17.3 mphClear
7:55 PM68.0 °F53.6 °F60 %30.21 in10.0 miSouth (190°)10.4 mphClear
8:35 PM68.0 °F53.6 °F60 %30.22 in10.0 miSouth (190°)9.2 mph16.1 mphClear
8:55 PM68.0 °F53.6 °F60 %30.23 in10.0 miSouth (190°)10.4 mphClear
9:15 PM66.2 °F53.6 °F64 %30.23 in10.0 miSouth (190°)8.1 mphClear
9:35 PM66.2 °F53.6 °F64 %30.23 in10.0 miSouth (190°)8.1 mphClear
9:55 PM66.2 °F53.6 °F64 %30.24 in10.0 miSSW (200°)5.8 mphClear
10:15 PM64.4 °F53.6 °F68 %30.23 in10.0 miSouth (190°)5.8 mphClear
10:55 PM62.6 °F53.6 °F72 %30.23 in10.0 miSouth (180°)5.8 mphClear
11:15 PM62.6 °F53.6 °F72 %30.23 in10.0 miSouth (180°)6.9 mphClear
11:35 PM60.8 °F53.6 °F77 %30.23 in10.0 miSouth (180°)8.1 mphClear
11:55 PM60.8 °F53.6 °F77 %30.23 in10.0 miSouth (180°)6.9 mphClear
Hourly data recorded from KRYW, located miles away from Austin - Lake Travis, Texas







STORIES FROM OUR PARTNERS